RADUGA 25 [-]

Last updated on Tue Jun 27 2023 00:03:02 GMT+0000 (Coordinated Universal Time)

1 20499U 90016A 23176.63095671 .00000107 00000+0 00000+0 0 9992 2 20499 13.4550 342.5678 0006973 147.7806 208.3498 1.00224963122047
UTC large
Height (km)
Speed (km/s)
/
Latitude / Longitude
Inclination (degrees)
Orbital Period (minutes)
Azimuth
Elevation
Range (km)
Doppler Factor

Next 0 passes for location: London (51.5072 / 0.1276)

Sorry there are no passes over London.